[[{"header":{"parameterUnit":"m.s-1","parameterCategory":2,"la1":30.2991,"la2":30.254,"lo1":-89.0895,"lo2":-89.0444,"dy":0.0017,"dx":0.0017,"nx":28,"ny":28,"refTime":"2024-03-26T03:00:00:Z","depth":"0","parameterNumber":2,"parameterNumberName":"U-component_of_CURRENTS"},"data":[0,0,0,0,0,0,0,0,0,0,0,0,0,0,0,0,0,0,0,0,0,0,0,0,0,0,0,0,0,0,0,0,0,0,0,0,0,0,0,0,0,0,0,0,0,0,0,0,0,0,0,0,0,0,0,0,0,0,0.2303,0.2303,0,0.2266,0.2265,0.2265,0.2225,0.2225,0.2225,0.2224,0.2186,0.2186,0.2185,0,0,0,0,0,0,0,0,0,0,0,0,0,0.2334,0.2333,0.2303,0.2303,0.2302,0.2266,0.2265,0.2264,0.2225,0.2225,0.2224,0.2224,0.2186,0.2186,0.2185,0,0,0,0,0,0,0,0,0,0,0,0,0,0.2308,0.2333,0.2303,0.228,0.2278,0.2266,0.2265,0.2264,0.2225,0.2225,0.2224,0.2224,0.2187,0.2186,0.2185,0.2187,0,0,0.2181,0.2181,0,0,0,0,0,0,0,0,0.231,0.2307,0.2284,0.2282,0.228,0.2252,0.2262,0.2239,0.2225,0.2243,0.2224,0.2224,0.221,0.2207,0.2197,0.2185,0.2184,0.2181,0.2181,0.218,0.218,0,0,0,0,0,0,0,0.2312,0.2308,0.2285,0.2284,0.2281,0.2271,0.2266,0.2258,0.2227,0.2241,0.2239,0.2239,0.2209,0.2199,0.2196,0.2183,0.2181,0.218,0.218,0.2179,0.2212,0.2213,0,0,0,0,0,0,0.2323,0.231,0.2287,0.2285,0.2297,0.2271,0.2266,0.2259,0.2227,0.2223,0.224,0.2238,0.2201,0.2198,0.2195,0.223,0.218,0.2179,0.2178,0.2211,0.2212,0.2214,0,0,0,0,0,0,0.2323,0.2321,0.2288,0.2299,0.2295,0.2271,0.2264,0.2259,0.2255,0.2227,0.2222,0.2242,0.22,0.2196,0.22,0.2227,0.2179,0.2178,0.2209,0.2211,0.2213,0.2278,0,0,0,0,0,0,0.2324,0.2321,0.2323,0.23,0.2294,0.2294,0.2264,0.2258,0.2257,0.2253,0.2227,0.2222,0.2199,0.2202,0.2199,0.2224,0.2177,0.2207,0.221,0.2212,0.2274,0.2283,0.229,0,0,0,0,0,0.2325,0.233,0.2323,0.2321,0.2297,0.2295,0.2292,0.2271,0.2257,0.2264,0.2247,0.2224,0.2218,0.2202,0.2198,0.2224,0.2205,0.2209,0.2212,0.2271,0.2281,0.229,0,0,0,0,0,0,0.2339,0.2326,0.2318,0.2317,0.2314,0.229,0.2294,0.2281,0.227,0.2267,0.2237,0.2232,0.2249,0.2229,0.2212,0.2244,0.2211,0.2214,0.2257,0.2266,0.2274,0.2294,0.2176,0,0,0,0,0,0.2346,0.2348,0.2336,0.2336,0.2338,0.2319,0.2316,0.2305,0.2292,0.2286,0.2268,0.2257,0.226,0.2256,0.2252,0.2264,0.227,0.2282,0.229,0.2296,0.2312,0.2344,0.2356,0.2225,0.2225,0.2225,0,0,0.2349,0.2345,0.2343,0.2341,0.2334,0.2341,0.2315,0.2319,0.2328,0.2285,0.2292,0.2284,0.2271,0.2287,0.2293,0.2273,0.2339,0.2301,0.2306,0.2319,0.2349,0.2362,0.2373,0.2228,0.2227,0.2227,0,0,0.2359,0.2357,0.2363,0.2368,0.237,0.2363,0.237,0.2356,0.2357,0.2364,0.2345,0.2357,0.2343,0.2348,0.2347,0.2397,0.2382,0.2394,0.2444,0.2475,0.2486,0.2496,0.2528,0.254,0.2393,0.2393,0.2394,0,0.2363,0.2367,0.2366,0.2378,0.2385,0.2378,0.2389,0.2394,0.2384,0.2394,0.2377,0.2388,0.2378,0.241,0.243,0.2416,0.2429,0.2406,0.2485,0.2495,0.2504,0.2535,0.2547,0.2397,0.2397,0.2396,0.2396,0,0.2376,0.2385,0.2394,0.2406,0.2417,0.2428,0.2439,0.2453,0.2453,0.2453,0.2486,0.2477,0.2483,0.2488,0.2474,0.2535,0.2523,0.2494,0.2461,0.2521,0.255,0.2562,0.2402,0.2401,0.24,0.2399,0,0,0.2361,0.2395,0.2397,0.2411,0.2433,0.2441,0.2477,0.2502,0.2529,0.2534,0.2569,0.2586,0.2583,0.2585,0.2575,0.2606,0.2683,0.2583,0.2583,0.2615,0.276,0.2737,0.2747,0.2665,0.2668,0.2669,0.2757,0,0.2369,0.2396,0.2414,0.2443,0.2458,0.248,0.2513,0.254,0.2565,0.2601,0.2617,0.2644,0.262,0.2632,0.2662,0.268,0.2717,0.2663,0.2697,0.2699,0.2671,0.2761,0.2668,0.2737,0.2769,0.2771,0.2772,0,0.2369,0.2391,0.2418,0.2464,0.2474,0.2493,0.2549,0.2581,0.2639,0.266,0.2697,0.2709,0.2766,0.2731,0.2803,0.2769,0.2779,0.2788,0.2791,0.2756,0.2699,0.2681,0.2757,0.2708,0.279,0.2788,0.2787,0,0.2348,0.2393,0.2415,0.2429,0.2479,0.2503,0.2534,0.2593,0.2634,0.2705,0.2745,0.2794,0.2834,0.2858,0.2882,0.285,0.2959,0.2907,0.2898,0.2896,0.2818,0.2806,0.285,0.2966,0.2966,0.2966,0.2965,0,0.2341,0.2359,0.2407,0.2417,0.2452,0.2495,0.2542,0.2587,0.2664,0.2716,0.2773,0.2826,0.2872,0.2929,0.2927,0.2964,0.2994,0.294,0.2929,0.2839,0.2827,0.278,0.2741,0.2969,0.2968,0.2967,0.2967,0,0.2306,0.2338,0.2366,0.2422,0.2438,0.2462,0.2536,0.2573,0.2661,0.2738,0.2768,0.2877,0.2959,0.3001,0.3058,0.303,0.2974,0.3053,0.295,0.2926,0.285,0.2818,0.2724,0.2631,0.3063,0.3063,0.3064,0,0.2288,0.2299,0.2353,0.2366,0.2388,0.2431,0.2457,0.2548,0.2598,0.2755,0.2789,0.2919,0.2981,0.308,0.3073,0.3095,0.2987,0.3007,0.2927,0.2869,0.2825,0.2681,0.2598,0.2853,0.2852,0.2851,0.2849,0,0.2254,0.2274,0.2298,0.2322,0.2347,0.2378,0.2432,0.2471,0.2586,0.2676,0.2785,0.2861,0.2984,0.2982,0.3038,0.3024,0.2863,0.298,0.2945,0.2703,0.2523,0.242,0.2778,0.2838,0.2839,0.284,0.284,0.2841,0.2224,0.2228,0.2254,0.227,0.2295,0.2309,0.2306,0.2384,0.2458,0.2557,0.2696,0.2771,0.2864,0.2936,0.2913,0.2845,0.2791,0.276,0.2741,0.2611,0.2473,0.2816,0.2843,0.2844,0.2845,0.2846,0.2846,0,0.2169,0.2178,0.2198,0.2204,0.2191,0.2232,0.2269,0.2255,0.2296,0.2428,0.2516,0.2625,0.2656,0.2705,0.2713,0.2628,0.2466,0.2559,0.2343,0.2283,0.263,0.2575,0.2512,0.2512,0.2512,0.2512,0.2512,0.2513,0.2144,0.2127,0.2133,0.2088,0.209,0.2042,0.2038,0.2047,0.2109,0.2177,0.2241,0.2344,0.2511,0.2583,0.2536,0.2469,0.2268,0.2162,0.2138,0.2417,0.2434,0.2449,0.2391,0.2291,0.229,0.1682,0.1677,0.1674]},{"header":{"parameterUnit":"m.s-1","parameterCategory":2,"la1":30.2991,"la2":30.254,"lo1":-89.0895,"lo2":-89.0444,"dy":0.0017,"dx":0.0017,"nx":28,"ny":28,"refTime":"2024-03-26T03:00:00:Z","depth":"0","parameterNumber":3,"parameterNumberName":"V-component_of_CURRENTS"},"data":[0,0,0,0,0,0,0,0,0,0,0,0,0,0,0,0,0,0,0,0,0,0,0,0,0,0,0,0,0,0,0,0,0,0,0,0,0,0,0,0,0,0,0,0,0,0,0,0,0,0,0,0,0,0,0,0,0,0,-0.0045,-0.0045,0,-0.0069,-0.007,-0.007,-0.0087,-0.0087,-0.0087,-0.0087,-0.0145,-0.0147,-0.0148,0,0,0,0,0,0,0,0,0,0,0,0,0,-0.0049,-0.0049,-0.0045,-0.0045,-0.0045,-0.0069,-0.007,-0.007,-0.0087,-0.0087,-0.0087,-0.0087,-0.0144,-0.0146,-0.0148,0,0,0,0,0,0,0,0,0,0,0,0,0,-0.0059,-0.0049,-0.0045,-0.0055,-0.0057,-0.0069,-0.007,-0.007,-0.0087,-0.0087,-0.0087,-0.0087,-0.0144,-0.0146,-0.0148,-0.0163,0,0,-0.0156,-0.0157,0,0,0,0,0,0,0,0,-0.0058,-0.0059,-0.0054,-0.0055,-0.0056,-0.0074,-0.0093,-0.0103,-0.0087,-0.0076,-0.0087,-0.0087,-0.0124,-0.0128,-0.0133,-0.0166,-0.0168,-0.0156,-0.0157,-0.0158,-0.0159,0,0,0,0,0,0,0,-0.0058,-0.0058,-0.0056,-0.0054,-0.0055,-0.0072,-0.0073,-0.0095,-0.0101,-0.0077,-0.0078,-0.0079,-0.0125,-0.0131,-0.0135,-0.0169,-0.0156,-0.0158,-0.0159,-0.016,-0.0219,-0.0219,0,0,0,0,0,0,-0.005,-0.0057,-0.0055,-0.0057,-0.0056,-0.0071,-0.0073,-0.0069,-0.01,-0.0104,-0.0079,-0.008,-0.0127,-0.0132,-0.0137,-0.0144,-0.0158,-0.016,-0.0162,-0.0219,-0.0219,-0.0219,0,0,0,0,0,0,-0.005,-0.005,-0.0054,-0.0057,-0.0058,-0.0071,-0.0067,-0.007,-0.0073,-0.0101,-0.0106,-0.0079,-0.0127,-0.0134,-0.015,-0.0147,-0.0161,-0.0164,-0.0219,-0.0219,-0.0219,-0.0166,0,0,0,0,0,0,-0.005,-0.0049,-0.0045,-0.0056,-0.0058,-0.0055,-0.0067,-0.007,-0.0073,-0.0074,-0.0103,-0.0108,-0.0128,-0.0146,-0.0152,-0.0151,-0.0165,-0.0219,-0.0219,-0.0219,-0.0168,-0.0165,-0.0162,0,0,0,0,0,-0.005,-0.0041,-0.0044,-0.0044,-0.0051,-0.0054,-0.0057,-0.0067,-0.0073,-0.0071,-0.0089,-0.0107,-0.0153,-0.0148,-0.0155,-0.0154,-0.0218,-0.0219,-0.0219,-0.0169,-0.0166,-0.0162,0,0,0,0,0,0,-0.0041,-0.0042,-0.0046,-0.0038,-0.0043,-0.0056,-0.0054,-0.0063,-0.0076,-0.0078,-0.0106,-0.0113,-0.0127,-0.015,-0.0144,-0.0174,-0.019,-0.0192,-0.015,-0.0147,-0.0144,-0.0124,-0.0167,0,0,0,0,0,-0.0036,-0.0029,-0.0036,-0.0029,-0.0029,-0.0042,-0.0045,-0.0052,-0.0064,-0.007,-0.009,-0.0114,-0.0135,-0.0147,-0.0169,-0.0183,-0.0205,-0.019,-0.0187,-0.0185,-0.0174,-0.0209,-0.0207,-0.0221,-0.0221,-0.0221,0,0,-0.003,-0.003,-0.0026,-0.0026,-0.0031,-0.0023,-0.0043,-0.0043,-0.0038,-0.0075,-0.0076,-0.0104,-0.0137,-0.0151,-0.016,-0.0168,-0.0192,-0.0185,-0.0182,-0.0173,-0.0209,-0.0207,-0.0206,-0.0221,-0.0221,-0.0221,0,0,-0.0011,-0.0014,-0.0,-0.0001,-0.0003,-0.001,-0.0007,-0.0019,-0.0024,-0.0032,-0.0057,-0.0079,-0.0112,-0.0131,-0.0147,-0.0144,-0.0175,-0.0157,-0.0125,-0.0159,-0.0157,-0.0157,-0.0177,-0.0178,-0.0156,-0.0156,-0.0156,0,-0.0004,0.0015,0.0002,0.0016,0.0023,0.0,0.0018,0.0008,-0.0007,-0.0008,-0.0026,-0.0071,-0.0101,-0.0114,-0.0114,-0.0135,-0.0156,-0.0132,-0.0153,-0.0153,-0.0153,-0.0174,-0.0177,-0.0153,-0.0153,-0.0154,-0.0154,0,0.0027,0.0041,0.005,0.0063,0.0065,0.0076,0.0065,0.0066,0.0053,0.0037,0.0019,-0.0024,-0.0048,-0.0068,-0.009,-0.0105,-0.0119,-0.0144,-0.0157,-0.0148,-0.0172,-0.0175,-0.015,-0.0151,-0.0151,-0.0152,0,0,0.0055,0.007,0.0076,0.0094,0.0093,0.0103,0.0113,0.0117,0.0131,0.0093,0.0104,0.0051,0.0022,0.0003,-0.0034,-0.0066,-0.0089,-0.01,-0.0103,-0.0111,-0.0153,-0.0158,-0.0163,-0.0118,-0.0119,-0.0119,-0.0167,0,0.0088,0.0128,0.0123,0.0163,0.0186,0.0174,0.019,0.0186,0.0171,0.0172,0.0118,0.0103,0.0049,0.0039,-0.0001,-0.0062,-0.0096,-0.0072,-0.0169,-0.0172,-0.0169,-0.0166,-0.0124,-0.0163,-0.0171,-0.0171,-0.0172,0,0.0131,0.0152,0.0198,0.0228,0.0238,0.0256,0.0286,0.0293,0.0279,0.0267,0.0236,0.0188,0.0144,0.0092,-0.0009,0.0008,-0.0065,-0.0121,-0.0125,-0.0148,-0.0183,-0.0176,-0.0169,-0.0295,-0.0177,-0.0177,-0.0176,0,0.0176,0.021,0.0253,0.0262,0.0287,0.0312,0.0326,0.0326,0.0347,0.0327,0.0339,0.0261,0.024,0.0134,0.0015,0.0001,-0.0096,-0.0133,-0.0207,-0.0208,-0.0199,-0.0199,-0.0316,-0.0209,-0.0209,-0.0209,-0.0208,0,0.0224,0.026,0.0281,0.0308,0.0367,0.0362,0.0419,0.0422,0.0433,0.0473,0.0393,0.0408,0.0248,0.0171,0.0046,-0.008,-0.0076,-0.0194,-0.0221,-0.018,-0.0177,-0.0309,-0.0381,-0.021,-0.021,-0.021,-0.0209,0,0.0273,0.0285,0.0339,0.0376,0.0395,0.0439,0.0492,0.0527,0.0531,0.0585,0.0584,0.0517,0.0423,0.0263,0.0097,-0.0023,-0.0228,-0.0206,-0.014,-0.0158,-0.0347,-0.0417,-0.0553,-0.0645,-0.0293,-0.0294,-0.0294,0,0.03,0.0335,0.0397,0.0437,0.046,0.052,0.0565,0.0582,0.063,0.0663,0.0701,0.0622,0.06,0.0358,0.0126,-0.0086,-0.0231,-0.0206,-0.0233,-0.0346,-0.0445,-0.0496,-0.0568,-0.0201,-0.0201,-0.02,-0.02,0,0.0356,0.038,0.0427,0.051,0.0569,0.0636,0.0706,0.0762,0.0797,0.0845,0.0895,0.0878,0.0667,0.047,0.0169,0.0013,-0.029,-0.0205,-0.0344,-0.0396,-0.0438,-0.0541,-0.0178,-0.0197,-0.0197,-0.0197,-0.0198,-0.0198,0.0402,0.0446,0.051,0.0591,0.0659,0.0751,0.0822,0.09,0.0994,0.1084,0.1052,0.1066,0.0784,0.0389,0.015,-0.0248,-0.0282,-0.0366,-0.0443,-0.0487,-0.057,-0.0193,-0.0233,-0.0234,-0.0234,-0.0235,-0.0235,0,0.0459,0.0508,0.0584,0.0682,0.0762,0.0788,0.0914,0.0987,0.1112,0.1197,0.1243,0.1129,0.0793,0.0412,-0.0105,-0.0411,-0.0551,-0.0592,-0.0658,-0.0728,-0.04,-0.0391,-0.0441,-0.0441,-0.044,-0.044,-0.044,-0.044,0.0492,0.0576,0.0614,0.0756,0.0822,0.0937,0.1015,0.1126,0.1215,0.1314,0.1335,0.1316,0.1048,0.0187,-0.0458,-0.0636,-0.0885,-0.0916,-0.1086,-0.0852,-0.0837,-0.0822,-0.0832,-0.0973,-0.0974,-0.1367,-0.1371,-0.1374]}],[{"header":{"parameterUnit":"m.s-1","parameterCategory":2,"la1":30.2991,"la2":30.254,"lo1":-89.0895,"lo2":-89.0444,"dy":0.0017,"dx":0.0017,"nx":28,"ny":28,"refTime":"2024-03-26T03:00:00:Z","depth":"2","parameterNumber":2,"parameterNumberName":"U-component_of_CURRENTS"},"data":[0,0,0,0,0,0,0,0,0,0,0,0,0,0,0,0,0,0,0,0,0,0,0,0,0,0,0,0,0,0,0,0,0,0,0,0,0,0,0,0,0,0,0,0,0,0,0,0,0,0,0,0,0,0,0,0,0,0,0.2233,0.2233,0,0.2209,0.2208,0.2208,0.2179,0.2179,0.2179,0.2178,0.215,0.2149,0.2149,0,0,0,0,0,0,0,0,0,0,0,0,0,0.2251,0.2251,0.2233,0.2233,0.2233,0.2209,0.2208,0.2208,0.2179,0.2179,0.2179,0.2178,0.215,0.2149,0.2149,0,0,0,0,0,0,0,0,0,0,0,0,0,0.2234,0.2251,0.2233,0.2218,0.2216,0.2209,0.2208,0.2207,0.2179,0.2179,0.2178,0.2178,0.215,0.2149,0.2149,0.2149,0,0,0.2146,0.2146,0,0,0,0,0,0,0,0,0.2235,0.2233,0.222,0.2219,0.2217,0.2199,0.2204,0.2189,0.2179,0.219,0.2178,0.2178,0.2168,0.2166,0.2158,0.2148,0.2147,0.2146,0.2145,0.2145,0.2145,0,0,0,0,0,0,0,0.2237,0.2234,0.2221,0.222,0.2218,0.2211,0.2208,0.2201,0.2179,0.2189,0.2188,0.2189,0.2167,0.2159,0.2157,0.2146,0.2146,0.2145,0.2145,0.2144,0.2182,0.2183,0,0,0,0,0,0,0.2245,0.2235,0.2222,0.222,0.2229,0.2211,0.2208,0.2203,0.2179,0.2176,0.219,0.2188,0.216,0.2158,0.2156,0.2194,0.2145,0.2144,0.2144,0.218,0.2182,0.2184,0,0,0,0,0,0,0.2246,0.2244,0.2223,0.223,0.2227,0.2211,0.2206,0.2203,0.2204,0.218,0.2176,0.2196,0.216,0.2157,0.2164,0.2192,0.2144,0.2143,0.2178,0.2181,0.2183,0.2246,0,0,0,0,0,0,0.2246,0.2244,0.2249,0.223,0.2227,0.2231,0.2207,0.2202,0.2206,0.2204,0.2184,0.218,0.216,0.2166,0.2163,0.219,0.2142,0.2177,0.2179,0.2182,0.2242,0.225,0.2257,0,0,0,0,0,0.2247,0.2253,0.2249,0.2248,0.2231,0.2233,0.223,0.2216,0.2207,0.2214,0.2202,0.2181,0.2182,0.2166,0.2163,0.219,0.2175,0.2179,0.2182,0.2239,0.2249,0.2257,0,0,0,0,0,0,0.2259,0.225,0.2245,0.2247,0.2248,0.2229,0.2236,0.2226,0.2221,0.2221,0.2194,0.2191,0.2211,0.2193,0.2176,0.2211,0.2178,0.2181,0.2222,0.2231,0.2239,0.2257,0.2142,0,0,0,0,0,0.2266,0.227,0.2262,0.2265,0.2269,0.2255,0.2255,0.2248,0.224,0.2237,0.2224,0.2216,0.2221,0.222,0.2218,0.2232,0.2237,0.225,0.2258,0.2264,0.2278,0.2309,0.2321,0.2195,0.2195,0.2195,0,0,0.227,0.2269,0.2268,0.2269,0.2267,0.2275,0.2254,0.2261,0.2273,0.2236,0.2249,0.2243,0.2232,0.2251,0.2258,0.2239,0.2304,0.2268,0.2274,0.2285,0.2314,0.2326,0.2337,0.2197,0.2197,0.2196,0,0,0.2281,0.2282,0.2289,0.2295,0.2302,0.2298,0.2305,0.2298,0.2303,0.2314,0.2298,0.2313,0.2305,0.2311,0.2311,0.2361,0.2346,0.2359,0.2407,0.2437,0.2448,0.2457,0.2486,0.2498,0.2359,0.2359,0.236,0,0.2287,0.2292,0.2293,0.2306,0.2315,0.2312,0.2325,0.2333,0.233,0.2342,0.2328,0.2346,0.2338,0.2371,0.2392,0.2379,0.2391,0.2371,0.2447,0.2457,0.2465,0.2492,0.2504,0.2363,0.2362,0.2362,0.2362,0,0.2299,0.2311,0.232,0.2334,0.2347,0.236,0.2373,0.2391,0.2395,0.2398,0.2434,0.243,0.244,0.2446,0.2434,0.2494,0.2482,0.2455,0.2423,0.2482,0.2507,0.2518,0.2368,0.2367,0.2366,0.2365,0,0,0.2289,0.2321,0.2325,0.2339,0.2364,0.2372,0.241,0.2438,0.2466,0.2476,0.2513,0.2534,0.2535,0.2538,0.2531,0.2561,0.2636,0.254,0.254,0.2569,0.2708,0.2677,0.2686,0.262,0.2622,0.2624,0.2704,0,0.2298,0.2325,0.2342,0.2373,0.2387,0.2411,0.2445,0.2474,0.2502,0.254,0.2559,0.2589,0.2569,0.2584,0.2614,0.2632,0.2667,0.2617,0.2648,0.265,0.2614,0.2698,0.2463,0.2513,0.2714,0.2716,0.2717,0,0.2299,0.232,0.2348,0.2393,0.2403,0.2425,0.2482,0.2515,0.2574,0.2598,0.2637,0.2651,0.2709,0.2677,0.2748,0.2716,0.2726,0.2735,0.2737,0.2695,0.2639,0.2486,0.2525,0.2736,0.2734,0.2733,0.2732,0,0.2279,0.2324,0.2347,0.236,0.241,0.2436,0.2468,0.2528,0.257,0.2643,0.2682,0.2733,0.2774,0.2798,0.2822,0.2794,0.2893,0.2846,0.2829,0.2826,0.2627,0.2603,0.2902,0.2902,0.2902,0.2901,0.2901,0,0.2273,0.2292,0.234,0.2351,0.2387,0.243,0.248,0.2526,0.2603,0.2652,0.2712,0.2761,0.281,0.2864,0.2863,0.2893,0.2926,0.2867,0.2855,0.2643,0.2621,0.2806,0.2794,0.2904,0.2904,0.2903,0.2903,0,0.224,0.2272,0.2301,0.2357,0.2374,0.2401,0.2476,0.2514,0.2602,0.2674,0.2705,0.281,0.2886,0.2927,0.2981,0.2953,0.2973,0.2968,0.2723,0.2683,0.2875,0.2865,0.2966,0.2966,0.2966,0.2966,0.2966,0,0.2223,0.2234,0.229,0.2305,0.2329,0.2375,0.2402,0.2492,0.2539,0.2688,0.2719,0.2841,0.2892,0.2981,0.2957,0.297,0.3,0.2755,0.2662,0.2908,0.2887,0.2877,0.2868,0.242,0.2415,0.2412,0.2409,0,0.2191,0.2212,0.2236,0.2264,0.2291,0.2322,0.2377,0.2413,0.2523,0.2603,0.2699,0.2762,0.2859,0.2772,0.2814,0.2778,0.2735,0.2683,0.3005,0.2449,0.2402,0.2378,0.2385,0.2375,0.2379,0.2381,0.2383,0.2384,0.2163,0.2168,0.2195,0.2214,0.224,0.2253,0.225,0.2319,0.2382,0.2454,0.2581,0.2586,0.2614,0.256,0.2485,0.2426,0.2617,0.2475,0.2482,0.2494,0.2426,0.2382,0.2339,0.2342,0.2345,0.2347,0.2349,0,0.211,0.2121,0.2141,0.2149,0.2135,0.2181,0.2212,0.2182,0.2205,0.2286,0.2344,0.2175,0.2135,0.215,0.2017,0.2036,0.1971,0.1941,0.1819,0.1857,0.1889,0.1784,0.153,0.1527,0.1524,0.1522,0,0,0.2086,0.2069,0.2073,0.203,0.2037,0.1986,0.198,0.1954,0.1971,0.194,0.1915,0.2052,0.2111,0.1792,0.1763,0.1616,0.1716,0.1553,0.2219,0.2115,0.2143,0.2219,0.2104,0,0,0,0,0]},{"header":{"parameterUnit":"m.s-1","parameterCategory":2,"la1":30.2991,"la2":30.254,"lo1":-89.0895,"lo2":-89.0444,"dy":0.0017,"dx":0.0017,"nx":28,"ny":28,"refTime":"2024-03-26T03:00:00:Z","depth":"2","parameterNumber":3,"parameterNumberName":"V-component_of_CURRENTS"},"data":[0,0,0,0,0,0,0,0,0,0,0,0,0,0,0,0,0,0,0,0,0,0,0,0,0,0,0,0,0,0,0,0,0,0,0,0,0,0,0,0,0,0,0,0,0,0,0,0,0,0,0,0,0,0,0,0,0,0,0.0095,0.0095,0,0.0071,0.007,0.007,0.0051,0.0051,0.0051,0.0051,-0.0002,-0.0004,-0.0005,0,0,0,0,0,0,0,0,0,0,0,0,0,0.0091,0.0091,0.0095,0.0095,0.0094,0.0071,0.007,0.007,0.0051,0.0051,0.0051,0.0051,-0.0002,-0.0003,-0.0005,0,0,0,0,0,0,0,0,0,0,0,0,0,0.0082,0.0092,0.0095,0.0083,0.0082,0.0071,0.007,0.007,0.0051,0.0051,0.0051,0.0051,-0.0001,-0.0003,-0.0005,-0.0015,0,0,-0.0011,-0.0012,0,0,0,0,0,0,0,0,0.0082,0.0082,0.0085,0.0084,0.0082,0.0064,0.0049,0.004,0.0051,0.0062,0.0051,0.0051,0.0018,0.0014,0.0009,-0.0017,-0.002,-0.0012,-0.0013,-0.0014,-0.0014,0,0,0,0,0,0,0,0.0083,0.0082,0.0084,0.0085,0.0083,0.0067,0.0066,0.0047,0.004,0.0061,0.006,0.0058,0.0017,0.0011,0.0008,-0.002,-0.0011,-0.0013,-0.0014,-0.0015,-0.0063,-0.0063,0,0,0,0,0,0,0.009,0.0083,0.0085,0.0084,0.0083,0.0068,0.0066,0.007,0.0041,0.0036,0.0059,0.0058,0.0015,0.001,0.0006,-0.0001,-0.0014,-0.0015,-0.0017,-0.0063,-0.0063,-0.0063,0,0,0,0,0,0,0.009,0.009,0.0086,0.0083,0.0082,0.0068,0.0072,0.0069,0.0064,0.0039,0.0034,0.0057,0.0014,0.0009,-0.0005,-0.0003,-0.0016,-0.0018,-0.0063,-0.0063,-0.0063,-0.0018,0,0,0,0,0,0,0.009,0.0091,0.0094,0.0084,0.0082,0.0085,0.0072,0.0069,0.0064,0.0063,0.0036,0.0031,0.0014,-0.0002,-0.0007,-0.0006,-0.002,-0.0063,-0.0063,-0.0063,-0.0019,-0.0016,-0.0014,0,0,0,0,0,0.009,0.0099,0.0095,0.0095,0.0088,0.0085,0.0083,0.0072,0.0064,0.0066,0.0049,0.0032,-0.0007,-0.0003,-0.0009,-0.0009,-0.0063,-0.0063,-0.0063,-0.002,-0.0017,-0.0014,0,0,0,0,0,0,0.0099,0.0098,0.0093,0.0101,0.0095,0.0083,0.0084,0.0074,0.0062,0.0059,0.0034,0.0028,0.0016,-0.0004,0.0001,-0.0025,-0.0039,-0.004,-0.0005,-0.0002,0.0001,0.0019,-0.0021,0,0,0,0,0,0.0104,0.0111,0.0103,0.011,0.0109,0.0096,0.0092,0.0084,0.0073,0.0067,0.0049,0.0027,0.001,-0.0,-0.0019,-0.0031,-0.0051,-0.0037,-0.0034,-0.0032,-0.0022,-0.0054,-0.0053,-0.0064,-0.0064,-0.0064,0,0,0.0109,0.0109,0.0113,0.0112,0.0107,0.0114,0.0094,0.0092,0.0097,0.0062,0.0062,0.0036,0.0009,-0.0003,-0.0011,-0.0018,-0.004,-0.0032,-0.0029,-0.0021,-0.0054,-0.0052,-0.0051,-0.0064,-0.0064,-0.0064,0,0,0.0128,0.0124,0.0138,0.0136,0.0132,0.0126,0.0127,0.0115,0.0109,0.0102,0.0079,0.0059,0.0031,0.0015,0.0003,0.0008,-0.0024,-0.0006,0.0023,-0.0008,-0.0007,-0.0006,-0.003,-0.0031,-0.0004,-0.0004,-0.0004,0,0.0133,0.0152,0.014,0.0153,0.0159,0.0135,0.0152,0.0142,0.0127,0.0126,0.0107,0.0068,0.0042,0.0034,0.0033,0.0015,-0.0007,0.0016,-0.0003,-0.0003,-0.0003,-0.0027,-0.003,-0.0002,-0.0002,-0.0003,-0.0003,0,0.0164,0.0178,0.0186,0.0198,0.02,0.0209,0.0198,0.0199,0.0183,0.0168,0.0152,0.0113,0.0093,0.0074,0.0055,0.0042,0.0025,0.0005,-0.0007,0.0001,-0.0025,-0.0029,0.0001,0.0,-0.0001,-0.0001,0,0,0.0189,0.0205,0.021,0.0228,0.0226,0.0236,0.0245,0.025,0.0262,0.0224,0.0235,0.0187,0.0158,0.0142,0.0108,0.0078,0.0053,0.0044,0.0041,0.0029,-0.0013,-0.0023,-0.0028,0.0026,0.0026,0.0026,-0.003,0,0.0221,0.026,0.0256,0.0295,0.0316,0.0304,0.0321,0.0316,0.0301,0.0302,0.0251,0.0238,0.0185,0.0174,0.0137,0.0079,0.0045,0.007,-0.0025,-0.0027,-0.0031,-0.0032,0.0007,-0.0039,-0.0033,-0.0034,-0.0034,0,0.026,0.0282,0.0327,0.0358,0.0366,0.0384,0.0412,0.0419,0.0406,0.0393,0.0362,0.0316,0.0274,0.0225,0.0127,0.0143,0.0071,0.0018,0.0014,-0.0011,-0.0044,-0.0048,-0.0046,-0.0041,-0.004,-0.004,-0.0039,0,0.0302,0.0336,0.0377,0.0386,0.0412,0.0436,0.0449,0.0449,0.047,0.0449,0.0459,0.0385,0.0363,0.0261,0.0144,0.0132,0.0036,0.0004,-0.0074,-0.0076,-0.0068,-0.0069,-0.007,-0.007,-0.007,-0.007,-0.007,0,0.0346,0.038,0.0403,0.0428,0.0485,0.0481,0.0535,0.0538,0.0549,0.0586,0.0509,0.0521,0.0369,0.0293,0.0173,0.0046,0.0053,-0.0064,-0.009,-0.0052,-0.005,-0.0072,-0.0071,-0.0072,-0.0071,-0.0071,-0.0071,0,0.039,0.0403,0.0455,0.0492,0.051,0.0551,0.0603,0.0637,0.0639,0.069,0.0687,0.0623,0.0527,0.0373,0.0212,0.0097,-0.0033,-0.0083,-0.0024,-0.0043,-0.0132,-0.0129,-0.0175,-0.0176,-0.0177,-0.0177,-0.0178,0,0.0415,0.0449,0.0508,0.0546,0.0568,0.0625,0.0669,0.0687,0.0733,0.0761,0.0797,0.0715,0.0687,0.0449,0.0227,0.0018,-0.0024,-0.01,-0.0121,-0.0122,-0.0143,-0.0138,-0.0134,-0.0096,-0.0096,-0.0096,-0.0095,0,0.0468,0.049,0.0535,0.0613,0.0669,0.0735,0.0802,0.0857,0.089,0.093,0.0971,0.0947,0.0739,0.0539,0.0245,0.01,-0.0066,-0.0103,-0.0118,-0.0074,-0.0051,-0.007,-0.0068,-0.0094,-0.0094,-0.0094,-0.0094,-0.0094,0.051,0.0551,0.0612,0.0688,0.0753,0.0842,0.091,0.0982,0.1066,0.1133,0.1102,0.1068,0.085,0.0482,0.0234,-0.0046,-0.0039,-0.0142,-0.0141,-0.0141,-0.012,-0.01,-0.0147,-0.0148,-0.0148,-0.0149,-0.0149,0,0.0563,0.0608,0.068,0.0772,0.0848,0.0874,0.0995,0.1059,0.1166,0.1207,0.1231,0.1025,0.0811,0.054,0.0146,-0.0084,-0.0104,-0.0172,-0.0137,-0.0136,-0.0136,-0.0115,-0.0142,-0.0142,-0.0143,-0.0144,0,0,0.0593,0.0672,0.0707,0.0839,0.0901,0.101,0.1085,0.1174,0.1227,0.1265,0.1237,0.1194,0.0887,0.0603,0.0303,0.0075,0.0011,0.0022,0.0045,0.0123,0.0126,-0.0086,-0.0047,0,0,0,0,0]}],[{"header":{"parameterUnit":"m.s-1","parameterCategory":2,"la1":30.2991,"la2":30.254,"lo1":-89.0895,"lo2":-89.0444,"dy":0.0017,"dx":0.0017,"nx":28,"ny":28,"refTime":"2024-03-26T03:00:00:Z","depth":"4","parameterNumber":2,"parameterNumberName":"U-component_of_CURRENTS"},"data":[0,0,0,0,0,0,0,0,0,0,0,0,0,0,0,0,0,0,0,0,0,0,0,0,0,0,0,0,0,0,0,0,0,0,0,0,0,0,0,0,0,0,0,0,0,0,0,0,0,0,0,0,0,0,0,0,0,0,0.1476,0.1477,0,0.1526,0.1527,0.1527,0.1571,0.1572,0.1573,0.1573,0.1617,0.1617,0.1618,0,0,0,0,0,0,0,0,0,0,0,0,0,0.1422,0.1422,0.1476,0.1477,0.1477,0.1526,0.1527,0.1527,0.1571,0.1572,0.1573,0.1574,0.1617,0.1617,0.1618,0,0,0,0,0,0,0,0,0,0,0,0,0,0.1454,0.1423,0.1476,0.1506,0.151,0.1526,0.1527,0.1527,0.1571,0.1572,0.1573,0.1574,0.1616,0.1617,0.1618,0.1603,0,0,0.1621,0.1621,0,0,0,0,0,0,0,0,0.1453,0.1456,0.1501,0.1504,0.1508,0.1545,0.1524,0.1553,0.1571,0.1546,0.1573,0.1574,0.1592,0.1595,0.16,0.1605,0.1607,0.1621,0.1621,0.1622,0.1622,0,0,0,0,0,0,0,0.145,0.1454,0.1494,0.1502,0.1506,0.1519,0.1525,0.1529,0.1562,0.1548,0.1552,0.156,0.1594,0.1599,0.1602,0.1608,0.1621,0.1621,0.1622,0.1622,0.1702,0.1704,0,0,0,0,0,0,0.1446,0.1452,0.1493,0.1496,0.1484,0.1519,0.1526,0.1531,0.1562,0.1568,0.1559,0.1562,0.1598,0.1601,0.1603,0.1677,0.1622,0.1622,0.1623,0.1701,0.1703,0.1705,0,0,0,0,0,0,0.1445,0.1449,0.1491,0.1477,0.1483,0.1519,0.1525,0.1531,0.1569,0.157,0.1576,0.1594,0.1598,0.1602,0.1643,0.1676,0.1623,0.1623,0.1699,0.1701,0.1704,0.1767,0,0,0,0,0,0,0.1443,0.1448,0.1466,0.1476,0.1484,0.1522,0.1524,0.1532,0.1571,0.1576,0.1602,0.1605,0.16,0.1642,0.1644,0.1676,0.1624,0.1697,0.17,0.1703,0.1763,0.1772,0.1779,0,0,0,0,0,0.1441,0.1457,0.1467,0.1473,0.1502,0.1523,0.1529,0.1556,0.1572,0.1593,0.1617,0.1606,0.1663,0.1644,0.1646,0.1679,0.1695,0.1699,0.1703,0.176,0.177,0.1779,0,0,0,0,0,0,0.1446,0.1463,0.1474,0.1497,0.152,0.1532,0.1559,0.1574,0.1609,0.1624,0.1624,0.1629,0.1678,0.167,0.1649,0.1712,0.1678,0.1682,0.1721,0.173,0.1738,0.1745,0.1625,0,0,0,0,0,0.1454,0.1473,0.1489,0.1512,0.1526,0.1548,0.1567,0.1585,0.1609,0.1627,0.1645,0.1667,0.1688,0.1704,0.1718,0.1749,0.1749,0.1773,0.1781,0.1788,0.1796,0.1823,0.1834,0.1717,0.1717,0.1717,0,0,0.1463,0.1477,0.1489,0.1516,0.1537,0.156,0.1563,0.1601,0.1632,0.1624,0.1683,0.1697,0.1704,0.1744,0.1765,0.1746,0.1824,0.1793,0.1798,0.1803,0.1828,0.1839,0.1849,0.1719,0.1719,0.1718,0,0,0.148,0.1505,0.1523,0.1544,0.1581,0.1594,0.1611,0.1643,0.1674,0.172,0.1728,0.1767,0.1795,0.1811,0.1818,0.1878,0.1866,0.1885,0.1931,0.1956,0.1966,0.1975,0.1999,0.2009,0.1888,0.1888,0.1888,0,0.1496,0.1516,0.1534,0.1558,0.1583,0.1612,0.164,0.167,0.1715,0.1743,0.1751,0.1816,0.1826,0.1871,0.19,0.1896,0.1908,0.1892,0.1966,0.1975,0.1982,0.2005,0.2016,0.1892,0.1891,0.1891,0.189,0,0.1513,0.1545,0.1562,0.1598,0.1628,0.1661,0.1697,0.174,0.178,0.1806,0.1875,0.1895,0.1932,0.1945,0.1944,0.2006,0.1997,0.1974,0.194,0.1998,0.2018,0.2028,0.1897,0.1895,0.1894,0.1893,0,0,0.1506,0.1562,0.1573,0.16,0.1656,0.1677,0.1738,0.1791,0.1839,0.1889,0.1947,0.1997,0.2016,0.2028,0.2035,0.2063,0.2134,0.2051,0.2051,0.2073,0.2201,0.2064,0.2061,0.2126,0.2128,0.2129,0.2197,0,0.1519,0.1565,0.1594,0.1651,0.1678,0.1728,0.1779,0.1835,0.1891,0.1954,0.1992,0.205,0.2044,0.2078,0.2107,0.2131,0.2162,0.2119,0.2144,0.2145,0.2014,0.2068,0.2135,0.2204,0.2206,0.2207,0.2208,0,0.1519,0.1553,0.1607,0.1679,0.1697,0.1741,0.1831,0.1882,0.1969,0.2014,0.2076,0.2109,0.2177,0.2156,0.2228,0.2204,0.2215,0.2223,0.2225,0.208,0.2025,0.2132,0.2225,0.2224,0.2223,0.2222,0.2221,0,0.1487,0.1562,0.1607,0.1632,0.1714,0.1762,0.1818,0.1906,0.1962,0.2065,0.2115,0.2184,0.2238,0.2264,0.2293,0.2274,0.2356,0.2321,0.2207,0.2198,0.2272,0.2262,0.2366,0.2366,0.2366,0.2365,0.2365,0,0.1468,0.1511,0.1603,0.1626,0.1693,0.1761,0.1842,0.1908,0.2008,0.2063,0.2151,0.2198,0.2272,0.2321,0.2324,0.2297,0.2382,0.2226,0.2206,0.2298,0.2291,0.2279,0.2268,0.2368,0.2367,0.2367,0.2366,0,0.1416,0.1478,0.1536,0.1639,0.1677,0.1728,0.1849,0.1899,0.2012,0.2089,0.2128,0.2241,0.2298,0.235,0.2401,0.2328,0.2318,0.2286,0.2401,0.2385,0.2138,0.213,0.2161,0.2157,0.2153,0.215,0.2147,0,0.1387,0.1413,0.1532,0.1571,0.1625,0.1712,0.1763,0.1884,0.1935,0.2086,0.2108,0.2221,0.2272,0.2237,0.2301,0.23,0.2268,0.2248,0.2173,0.2139,0.2118,0.2116,0.2112,0.2142,0.2141,0.214,0.2139,0,0.1331,0.1389,0.1438,0.1518,0.1584,0.1643,0.1732,0.1757,0.1882,0.2002,0.2029,0.2054,0.2117,0.2144,0.2166,0.2156,0.2249,0.221,0.2216,0.2145,0.2116,0.2098,0.2099,0.2126,0.2128,0.2129,0.213,0,0.1295,0.1314,0.1388,0.1446,0.1522,0.1548,0.1606,0.1655,0.1715,0.1872,0.1874,0.1983,0.2089,0.2071,0.2088,0.2074,0.2034,0.195,0.1969,0.1983,0.1892,0.1828,0.174,0,0,0,0,0,0.1246,0.1256,0.1307,0.1356,0.1426,0.147,0.1569,0.1628,0.1745,0.1713,0.1786,0.1826,0.1848,0.1913,0.1863,0.2023,0.2054,0.1956,0.1969,0.2057,0.2071,0.1979,0,0,0,0,0,0,0.1213,0.1256,0.1271,0.1266,0.1283,0.1341,0.1398,0.1482,0.1473,0.1598,0.1624,0.1712,0.1772,0.1855,0.1826,0.1845,0.1814,0.2028,0.2023,0.2049,0.2062,0.2074,0.1984,0,0,0,0,0]},{"header":{"parameterUnit":"m.s-1","parameterCategory":2,"la1":30.2991,"la2":30.254,"lo1":-89.0895,"lo2":-89.0444,"dy":0.0017,"dx":0.0017,"nx":28,"ny":28,"refTime":"2024-03-26T03:00:00:Z","depth":"4","parameterNumber":3,"parameterNumberName":"V-component_of_CURRENTS"},"data":[0,0,0,0,0,0,0,0,0,0,0,0,0,0,0,0,0,0,0,0,0,0,0,0,0,0,0,0,0,0,0,0,0,0,0,0,0,0,0,0,0,0,0,0,0,0,0,0,0,0,0,0,0,0,0,0,0,0,0.0216,0.0216,0,0.0205,0.0205,0.0205,0.0198,0.0198,0.0198,0.0198,0.0172,0.0172,0.0171,0,0,0,0,0,0,0,0,0,0,0,0,0,0.0206,0.0206,0.0216,0.0216,0.0216,0.0205,0.0205,0.0205,0.0198,0.0198,0.0198,0.0198,0.0172,0.0172,0.0171,0,0,0,0,0,0,0,0,0,0,0,0,0,0.0204,0.0206,0.0216,0.0211,0.0211,0.0205,0.0205,0.0204,0.0198,0.0198,0.0198,0.0198,0.0173,0.0172,0.0171,0.0164,0,0,0.0168,0.0167,0,0,0,0,0,0,0,0,0.0204,0.0204,0.0212,0.0212,0.0211,0.0203,0.0192,0.019,0.0198,0.0202,0.0198,0.0198,0.0182,0.018,0.0177,0.0163,0.0162,0.0167,0.0167,0.0166,0.0166,0,0,0,0,0,0,0,0.0204,0.0204,0.0211,0.0212,0.0211,0.0201,0.0201,0.0191,0.0191,0.0202,0.0201,0.0201,0.0181,0.0178,0.0177,0.0161,0.0168,0.0167,0.0166,0.0166,0.0146,0.0146,0,0,0,0,0,0,0.0208,0.0205,0.0211,0.0211,0.0208,0.0202,0.0202,0.0205,0.0192,0.019,0.0201,0.0201,0.018,0.0178,0.0176,0.0178,0.0166,0.0165,0.0165,0.0146,0.0146,0.0146,0,0,0,0,0,0,0.0208,0.0209,0.0212,0.0208,0.0207,0.0202,0.0206,0.0205,0.0205,0.0191,0.0189,0.0203,0.018,0.0177,0.0173,0.0177,0.0165,0.0164,0.0146,0.0146,0.0146,0.0177,0,0,0,0,0,0,0.0208,0.0209,0.0214,0.0208,0.0208,0.0213,0.0206,0.0205,0.0205,0.0204,0.0192,0.0189,0.018,0.0175,0.0172,0.0175,0.0163,0.0146,0.0146,0.0146,0.0175,0.0178,0.018,0,0,0,0,0,0.0207,0.0216,0.0215,0.0215,0.0215,0.0213,0.0212,0.0208,0.0205,0.0207,0.02,0.019,0.0174,0.0174,0.0171,0.0174,0.0146,0.0146,0.0146,0.0174,0.0177,0.018,0,0,0,0,0,0,0.0216,0.0216,0.0214,0.0223,0.022,0.0213,0.0216,0.021,0.0207,0.0207,0.0193,0.019,0.0187,0.0176,0.0177,0.0168,0.0157,0.0157,0.018,0.0182,0.0184,0.0197,0.0162,0,0,0,0,0,0.022,0.0228,0.0223,0.0231,0.0231,0.0223,0.0222,0.0218,0.0213,0.0211,0.0203,0.0193,0.0185,0.0181,0.0171,0.0168,0.0149,0.0167,0.0169,0.0171,0.0178,0.0153,0.0153,0.0147,0.0147,0.0147,0,0,0.0226,0.0228,0.0232,0.0233,0.0231,0.0237,0.0223,0.0224,0.0231,0.0209,0.0215,0.02,0.0185,0.0183,0.018,0.0175,0.0161,0.0171,0.0173,0.018,0.0153,0.0154,0.0154,0.0147,0.0147,0.0147,0,0,0.0243,0.0243,0.0255,0.0254,0.0253,0.0249,0.025,0.0244,0.0243,0.0242,0.0229,0.022,0.0206,0.0199,0.0193,0.0201,0.0173,0.0193,0.0215,0.019,0.019,0.019,0.0161,0.0158,0.0194,0.0194,0.0194,0,0.025,0.0266,0.0257,0.0267,0.0274,0.0257,0.0271,0.0266,0.0259,0.026,0.0249,0.0231,0.0216,0.0216,0.0218,0.0207,0.0184,0.0207,0.0193,0.0193,0.0192,0.0162,0.0159,0.0196,0.0196,0.0195,0.0195,0,0.0274,0.0287,0.0294,0.0305,0.0307,0.0316,0.031,0.0313,0.0305,0.0295,0.029,0.0267,0.0258,0.0247,0.0235,0.0227,0.0209,0.0198,0.0188,0.0195,0.0163,0.0159,0.0198,0.0197,0.0197,0.0197,0,0,0.0292,0.0309,0.0313,0.0328,0.0329,0.0337,0.0349,0.0354,0.0366,0.0343,0.0354,0.0327,0.0306,0.0298,0.0277,0.0254,0.0227,0.0227,0.0225,0.0201,0.0164,0.0149,0.0143,0.0209,0.0209,0.0209,0.014,0,0.0316,0.0347,0.0348,0.0381,0.0397,0.0392,0.0409,0.0408,0.0399,0.0403,0.037,0.0365,0.0328,0.0324,0.0294,0.0249,0.0218,0.0246,0.0159,0.0156,0.0145,0.0139,0.0208,0.0137,0.0136,0.0136,0.0135,0,0.0342,0.0362,0.0399,0.0429,0.0437,0.0455,0.0481,0.049,0.0483,0.0476,0.0456,0.0423,0.0393,0.0359,0.0277,0.0294,0.0232,0.0189,0.0185,0.0161,0.0135,0.0129,0.0127,0.0128,0.0129,0.0129,0.013,0,0.0367,0.04,0.0436,0.0445,0.0472,0.0496,0.0512,0.0515,0.0534,0.0522,0.053,0.0475,0.046,0.0376,0.028,0.0275,0.0183,0.0166,0.0092,0.009,0.011,0.0111,0.0102,0.0102,0.0102,0.0103,0.0103,0,0.0394,0.0424,0.0455,0.0476,0.0527,0.0531,0.0579,0.0586,0.06,0.0624,0.0571,0.0575,0.0462,0.0393,0.0296,0.0183,0.0191,0.0096,0.0073,0.0123,0.0126,0.0107,0.0108,0.01,0.0101,0.0101,0.0101,0,0.0416,0.0435,0.0481,0.0524,0.0544,0.058,0.0635,0.0663,0.0671,0.0703,0.0703,0.0649,0.0558,0.0436,0.0302,0.0213,0.0102,0.0057,0.0121,0.0102,0.0019,0.0023,-0.0031,-0.0033,-0.0033,-0.0034,-0.0035,0,0.0428,0.0456,0.052,0.0555,0.058,0.0635,0.0675,0.0701,0.0734,0.0748,0.0768,0.0694,0.0638,0.0445,0.0309,0.0116,0.0084,0.0016,0.0014,0.0023,0.0006,0.0011,0.0016,-0.0036,-0.0036,-0.0037,-0.0037,0,0.0454,0.0482,0.0521,0.0593,0.0646,0.0706,0.0765,0.0796,0.0823,0.0832,0.0816,0.0711,0.0611,0.045,0.0297,0.0159,0.0056,0.0006,0.0007,0.0004,0.0017,0.0002,0.0007,-0.004,-0.004,-0.0039,-0.0039,0,0.0478,0.0509,0.0565,0.0626,0.0694,0.0757,0.0787,0.0825,0.0857,0.0865,0.0858,0.0746,0.0679,0.0473,0.0337,0.0195,0.0153,0.0094,0.0089,0.0091,0.0142,0.0177,0.0151,0,0,0,0,0,0.0495,0.0532,0.059,0.0659,0.0724,0.0767,0.0839,0.0861,0.089,0.0882,0.0871,0.0774,0.0572,0.0494,0.0349,0.031,0.0123,0.0133,0.0051,-0.0057,-0.0053,-0.0015,0,0,0,0,0,0,0.0509,0.0566,0.0591,0.0674,0.0721,0.0799,0.0847,0.0867,0.0867,0.0871,0.0773,0.0722,0.0535,0.0653,0.0342,0.03,0.0223,0.0044,0.004,-0.0059,-0.0056,-0.0053,-0.0013,0,0,0,0,0]}]]